Tracking 19476 objects as of 17-Jan-2019
HD Live streaming from Space Station
objects crossing your sky now

OPS 1127 (DMSP 4B F3)

Track OPS 1127 (DMSP 4B F3) now!
10-day predictions
OPS 1127 (DMSP 4B F3) is classified as:


NORAD ID: 4047
Int'l Code: 1969-062A
Perigee: 772.2 km
Apogee: 834.6 km
Inclination: 98.8 °
Period: 100.8 minutes
Semi major axis: 7174 km
RCS: 0.6649 m2 (medium)
Launch date: July 23, 1969
Source: United States (US)
Launch site: AIR FORCE WESTERN TEST RANGE (AFWTR)
aabbcc
Your satellite tracking list
Your tracking list is empty




NASA's NSSDC Master Catalog

Two Line Element Set (TLE):
1  4047U 69062A   19016.65187436 -.00000014  00000-0  12555-4 0  9993
2  4047  98.7892 229.3039 0043498 275.7760  83.8463 14.28633629574956
Source of the keplerian elements: AFSPC